This is the latest recevied weather packets stored in our database for station/object K0QJ. If no packets are shown the sender has not sent any weather packets the latest 1 day(s).
| Time | Temp. | Humidity | Pressure | Rain* | Wind** | Luminosity | Snow |
|---|---|---|---|---|---|---|---|
| 1778023141 | 10.56° C | 84% | 1010.7 hPa | 0 mm | 0 m/s | 61 W/m² | - |
| 1778022839 | 10.56° C | 84% | 1010.8 hPa | 0 mm | 0 m/s | 54 W/m² | - |
| 1778022537 | 10.56° C | 84% | 1010.9 hPa | 0 mm | 0 m/s | 55 W/m² | - |
| 1778022234 | 10.56° C | 84% | 1010.9 hPa | 0 mm | 0 m/s | 56 W/m² | - |
| 1778021931 | 10.56° C | 84% | 1010.8 hPa | 0 mm | 0 m/s | 63 W/m² | - |
| 1778021628 | 10.56° C | 84% | 1010.6 hPa | 0 mm | 0 m/s | 53 W/m² | - |
| 1778021323 | 10.56° C | 83% | 1010.5 hPa | 0 mm | 0 m/s | 62 W/m² | - |
| 1778021021 | 10.56° C | 84% | 1010.4 hPa | 0 mm | 0 m/s | 56 W/m² | - |
| 1778020718 | 10.56° C | 84% | 1010.4 hPa | 0 mm | 0 m/s | 65 W/m² | - |
| 1778020415 | 10.56° C | 84% | 1010.6 hPa | 0 mm | 0 m/s | 72 W/m² | - |
| 1778020110 | 10.56° C | 83% | 1010.6 hPa | 0 mm | 0 m/s | 108 W/m² | - |
| 1778019807 | 10.56° C | 84% | 1010.7 hPa | 0 mm | 0 m/s | 76 W/m² | - |
| 1778019504 | 10.56° C | 84% | 1010.6 hPa | 0 mm | 0 m/s | 75 W/m² | - |
| 1778019201 | 10.56° C | 83% | 1010.6 hPa | 0 mm | 0.45 m/s, 14° | 115 W/m² | - |
| 1778018898 | 10.56° C | 83% | 1010.9 hPa | 0 mm | 0.45 m/s, 351° | 81 W/m² | - |
| 1778018595 | 10.56° C | 83% | 1010.7 hPa | 0 mm | 0 m/s | 77 W/m² | - |
| 1778018293 | 10.56° C | 83% | 1010.4 hPa | 0 mm | 0.45 m/s, 7° | 115 W/m² | - |
| 1778017990 | 10.56° C | 84% | 1010.8 hPa | 0 mm | 0 m/s | 171 W/m² | - |
| 1778017688 | 10.56° C | 84% | 1010.4 hPa | 0 mm | 0.45 m/s, 0° | 131 W/m² | - |
| 1778017385 | 10.56° C | 85% | 1011 hPa | 0 mm | 0.45 m/s, 314° | 127 W/m² | - |
| 1778017082 | 10.56° C | 86% | 1010.8 hPa | 0 mm | 0.45 m/s, 342° | 95 W/m² | - |
| 1778016780 | 10° C | 86% | 1010.5 hPa | 0 mm | 0.45 m/s, 6° | 137 W/m² | - |
| 1778016475 | 10° C | 88% | 1010.6 hPa | 0 mm | 0.45 m/s, 342° | 156 W/m² | - |
| 1778016173 | 10° C | 89% | 1010.7 hPa | 0 mm | 0 m/s | 175 W/m² | - |
| 1778015869 | 9.44° C | 91% | 1010.9 hPa | 0 mm | 0 m/s | 165 W/m² | - |
* Rain latest hour (hover to see other rain measurements)
** Current wind speed in m/s (hover to see current wind gust speed)